Home   Weather   42°12'N, 91°31'W   Past weeks
Flag for USA

Past Weather in 42°12'N, 91°31'W, USA — Yesterday and Last 2 Weeks

Now
11 °F

Ice fog.


Feels Like: 11 °F
Forecast: 31 / 10 °F
Wind: No wind

Location: Vinton Veterans Memorial Airpark Airport

Current Time: Feb 22, 2019 at 6:31:04 am

Latest Report: Feb 22, 2019 at 6:15 am


Visibility: 5 mi

Pressure: 30.40 "Hg

Humidity: 86%

Dew Point: 8 °F

Location of 42°12'N, 91°31'WLocation

Past Weather in 42°12'N, 91°31'W — Graph

°F

42°12'N, 91°31'W Temperature Yesterday

Maximum temperature yesterday: 26 °F (at 3:15 pm)
Minimum temperature yesterday: 6 °F (at 10:35 pm)
Average temperature yesterday: 16 °F

High & Low Weather Summary for the Past Weeks

 TemperatureHumidityPressure
High40 °F (Feb 14, 11:55 am)100% (Feb 7, 5:15 am)30.84 "Hg (Feb 7, 5:15 am)
Low-12 °F (Feb 19, 5:15 am)55% (Feb 9, 1:35 pm)29.48 "Hg (Feb 14, 11:15 am)
Average16 °F80%30.12 "Hg
* Reported Feb 7 5:15 am — Feb 22 5:15 am, 42°12'N, 91°31'W. Weather by CustomWeather, © 2019

Note: Actual official high and low records may vary slightly from our data, if they occured in-between our weather recording intervals... More about our weather records

Advertising

42°12'N, 91°31'W Weather History for the Previous 24 Hours

Scroll right to see more
 ConditionsComfort  
Time TempWeatherWind HumidityBarometerVisibility
5:15 am
Fri, Feb 22
11 °FClear.3 mph86%30.40 "Hg7 mi
4:55 am11 °FClear.No wind86%30.40 "Hg7 mi
4:35 am10 °FIce fog.3 mph86%30.39 "Hg5 mi
4:15 am11 °FClear.No wind86%30.37 "Hg7 mi
3:55 am11 °FClear.No wind86%30.36 "Hg7 mi
3:35 am11 °FClear.No wind86%30.36 "Hg7 mi
3:15 am11 °FClear.7 mph87%30.35 "Hg7 mi
2:55 am11 °FClear.No wind87%30.38 "Hg7 mi
2:35 am10 °FClear.No wind88%30.39 "Hg7 mi
2:15 am9 °FClear.3 mph88%30.40 "Hg7 mi
1:35 am8 °FClear.No wind88%30.39 "Hg7 mi
1:15 am8 °FIce fog.No wind88%30.38 "Hg5 mi
12:55 am8 °FIce fog.6 mph89%30.37 "Hg5 mi
12:35 am8 °FIce fog.No wind89%30.38 "Hg5 mi
12:15 am8 °FIce fog.No wind89%30.35 "Hg5 mi
11:55 pm
Thu, Feb 21
7 °FIce fog.No wind89%30.35 "Hg5 mi
11:35 pm6 °FIce fog.No wind88%30.35 "Hg5 mi
11:15 pm6 °FIce fog.3 mph88%30.34 "Hg5 mi
10:55 pm6 °FIce fog.No wind88%30.33 "Hg5 mi
10:35 pm6 °FIce fog.No wind88%30.33 "Hg5 mi
10:15 pm8 °FIce fog.3 mph89%30.33 "Hg5 mi
9:55 pm8 °FIce fog.No wind89%30.33 "Hg5 mi
9:35 pm8 °FClear.5 mph89%30.32 "Hg7 mi
9:15 pm8 °FClear.3 mph89%30.32 "Hg7 mi
8:35 pm11 °FClear.5 mph86%30.31 "Hg7 mi
8:15 pm13 °FClear.No wind85%30.30 "Hg7 mi
7:15 pm16 °FClear.No wind81%30.30 "Hg10 mi
6:35 pm18 °FClear.No wind76%30.27 "Hg10 mi
5:55 pm20 °FClear.No wind69%30.27 "Hg10 mi
5:35 pm22 °FSunny.3 mph67%30.27 "Hg10 mi
5:15 pm22 °FSunny.5 mph69%30.27 "Hg10 mi
4:55 pm21 °FSunny.6 mph70%30.27 "Hg10 mi
4:35 pm23 °FSunny.6 mph65%30.27 "Hg10 mi
4:15 pm24 °FSunny.5 mph64%30.27 "Hg10 mi
3:55 pm26 °FSunny.5 mph60%30.26 "Hg10 mi
3:35 pm25 °FSunny.5 mph61%30.25 "Hg10 mi
3:15 pm26 °FSunny.6 mph61%30.24 "Hg10 mi
2:55 pm24 °FSunny.6 mph61%30.25 "Hg10 mi
2:35 pm24 °FSunny.6 mph63%30.23 "Hg10 mi
2:15 pm24 °FSunny.7 mph64%30.23 "Hg10 mi
1:55 pm22 °FSunny.8 mph64%30.23 "Hg10 mi
1:35 pm24 °FSunny.8 mph63%30.22 "Hg10 mi
1:15 pm24 °FSunny.10 mph66%30.22 "Hg10 mi
12:55 pm21 °FSunny.9 mph69%30.23 "Hg10 mi
12:35 pm21 °FSunny.9 mph68%30.23 "Hg10 mi
11:35 am19 °FSunny.10 mph68%30.23 "Hg10 mi
11:15 am19 °FSunny.10 mph68%30.23 "Hg10 mi
10:35 am18 °FSunny.8 mph70%30.22 "Hg10 mi
10:15 am17 °FSunny.10 mph73%30.22 "Hg7 mi
9:55 am16 °FSunny.10 mph74%30.20 "Hg10 mi
9:35 am16 °FSunny.10 mph75%30.18 "Hg7 mi
9:15 am16 °FSunny.10 mph76%30.18 "Hg7 mi
8:35 am12 °FIce fog.7 mph87%30.16 "Hg5 mi
8:15 am8 °FIce fog.7 mph88%30.15 "Hg4 mi
7:55 am8 °FIce fog.3 mph89%30.14 "Hg4 mi
6:55 am9 °FIce fog.No wind90%30.12 "Hg5 mi
6:35 am11 °FIce fog.5 mph90%30.10 "Hg5 mi
6:15 am10 °FIce fog.No wind89%30.08 "Hg5 mi
Weather by CustomWeather, © 2019

See weather overview